Regional Weather Roundup
Issued by NWS Albany, NY

Home | Current Version | Previous Version | Text Only | Print | Product List | Glossary On
Versions: 1 2 3 4 5 6 7 8 9 10 11 12 13 14 15 16 17 18 19 20 21 22 23 24 25 26 27 28 29 30 31 32 33 34 35 36 37 38 39 40 41 42 43 44 45 46 47 48 49 50
000
ASUS41 KALY 281910
RWRALY

NEW YORK STATE HOURLY WEATHER ROUNDUP
NATIONAL WEATHER SERVICE ALBANY NY
300 PM EDT MON JUL 28 2014

NOTE: "FAIR" INDICATES FEW OR NO CLOUDS BELOW 12,000 FEET WITH NO
SIGNIFICANT WEATHER AND/OR NO OBSTRUCTIONS TO VISIBILITY.

NYZ032-033-038>043-046>054-057>066-NYZ062>081-282000-
EAST


CITY           SKY/WX    TMP DP  RH WIND       PRES   REMARKS
ALBANY         CLOUDY    73  64  73 N3        29.48R THUNDER
GLENS FALLS    CLOUDY    72  64  76 NE3       29.48F
POUGHKEEPSIE   MOSUNNY   82  62  50 SW14G21   29.47S
NEWBURGH       PTSUNNY   81  64  57 W17G23    29.50
MONTGOMERY     MOSUNNY   80  63  55 SW18G25   29.50R
WHITE PLAINS   PTSUNNY   81  61  50 SW9G21    29.52R
ISLIP          MOSUNNY   84  65  52 SW17G26   29.50S
NEW YORK CITY  PTSUNNY   84  60  44 SW10G24   29.51S
CENTRAL PARK   PTSUNNY   79  61  53 VRB5      29.55S
$$

NYZ005>009-017-018-044>046-055-056-282000-
CENTRAL


CITY           SKY/WX    TMP DP  RH WIND       PRES   REMARKS
FULTON         RAIN      62  59  90 N15G23    29.63R FOG
SYRACUSE       LGT RAIN  63  61  94 NW14G21   29.59R
ROME           LGT RAIN  67  63  87 N9        29.55R
ELMIRA         LGT RAIN  64  61  88 VRB7      29.63R FOG
BINGHAMTON     CLOUDY    67  60  78 N12G21    29.58R
MONTICELLO     PTSUNNY   64  61  88 W8        29.57R THUNDER
$$

NYZ026>034-041>043-282000-
NORTH


CITY           SKY/WX    TMP DP  RH WIND       PRES   REMARKS
WATERTOWN      LGT RAIN  62  57  83 N12G22    29.63R
FORT DRUM      NOT AVBL
MASSENA        RAIN      62  60  93 N9G17     29.63R
SARANAC LAKE   RAIN      58  57  97 N6        29.57R FOG
PLATTSBURGH    HVY RAIN  63  62  97 N18       29.53S FOG
$$

NYZ001>004-010>016-019>021-282000-
WEST


CITY           SKY/WX    TMP DP  RH WIND       PRES   REMARKS
NIAGARA FALLS  PTSUNNY   64  58  80 N9        29.75R
BUFFALO        LGT RAIN  62  58  86 NW10      29.75R
DUNKIRK        CLOUDY    60  56  86 NW14      29.78R
JAMESTOWN      CLOUDY    57  55  94 N13G20    29.78R
WELLSVILLE     LGT RAIN  60  56  86 NW15G22   29.74R
ROCHESTER      LGT RAIN  60  58  92 N13G24    29.71R
PENN YAN       LGT RAIN  61  59  93 NW13G21   29.67R FOG
$$

             KEY
       WCI = WIND CHILL INDEX
       VSB = VISIBILITY
       HX  = HEAT INDEX
$$


USA.gov is the U.S. government's official web portal to all federal, state and local government web resources and services.